Regional Weather Roundup
Issued by NWS Kansas City/Pleasant Hill, MO

Home | Current Version | Previous Version | Graphics & Text | Print | Product List | Glossary Off
Versions: 1 2 3 4 5 6 7 8 9 10 11 12 13 14 15 16 17 18 19 20 21 22 23 24 25 26 27

000
ASUS43 KEAX 270610
RWREAX

WEATHER ROUNDUP FOR EASTERN KANSAS AND NORTHWEST MISSOURI
NATIONAL WEATHER SERVICE KANSAS CITY/PLEASANT HILL MO
100 AM CDT SAT AUG 27 2016

KSZ040-057-103>105-MOZ028-029-037-043-270700-
...KANSAS CITY METROPOLITAN AREA...

CITY           SKY/WX    TMP DP  RH WIND       PRES   REMARKS
K.C. INTL      CLOUDY    70  67  90 S12       30.04S
6HR MIN TEMP:  69; 6HR MAX TEMP:  71; 6HR PCP:  1.69;

K.C. DOWNTOWN  LGT RAIN  70  66  87 SW3       30.03S
6HR MIN TEMP:  70; 6HR MAX TEMP:  83; 6HR PCP:  4.24;

LEES SUMMIT    LGT RAIN  68  67  96 NE8       30.06R FOG
6HR MIN TEMP:  68; 6HR MAX TEMP:  79; 6HR PCP:  0.48;

OLATHE - IXD   MOCLDY    70  69  97 E5        30.05F
6HR MIN TEMP:  70; 6HR MAX TEMP:  78; 6HR PCP:  0.58;

OLATHE - OJC   PTCLDY   N/A N/A N/A E6        30.05F
                                      6HR PCP:  0.01;

LAWRENCE       MOCLDY    70  69  97 SE5       30.03F

$$

MOZ001>008-011>017-020>025-030>033-038>040-044>046-053-054-270700-
...NORTHERN AND CENTRAL MISSOURI...

CITY           SKY/WX    TMP DP  RH WIND       PRES   REMARKS
ST. JOSEPH     CLOUDY    69  68  96 S5        30.03R FOG
6HR MIN TEMP:  68; 6HR MAX TEMP:  70; 6HR PCP:  0.06;

MOSBY          LGT RAIN  70  68  94 SW7       30.04R
WHITEMAN AFB   CLEAR     71  71 100 NE6       30.04R
6HR MIN TEMP:  71; 6HR MAX TEMP:  79;

CLINTON        NOT AVBL
SEDALIA        PTCLDY    72  70  93 NW5       30.06R FOG
6HR MIN TEMP:  72; 6HR MAX TEMP:  80;

WARSAW         NOT AVBL
CHILLICOTHE    NOT AVBL
KIRKSVILLE     LGT RAIN  70  67  90 SW7       30.06F FOG
6HR MIN TEMP:  69; 6HR MAX TEMP:  75; 6HR PCP:  1.23;


$$

MOZ041-047>049-056>058-063>065-088>090-097-270700-
...EASTERN AND SOUTHERN MISSOURI...

CITY           SKY/WX    TMP DP  RH WIND       PRES   REMARKS
ST. LOUIS INTL NOT AVBL
SPIRIT OF STL  CLOUDY    78  74  87 CALM      30.03R
COLUMBIA       LGT RAIN  74  72  93 N6        30.06R
JEFFERSON CITY CLOUDY    73  72  96 CALM      30.04R
ROLLA          CLOUDY    73  71  93 SW7       30.06R
OSAGE BEACH    MOCLDY    72  70  93 CALM      30.06R
SPRINGFIELD    CLOUDY    74  70  87 SE7       30.04F
BRANSON        CLOUDY    72  72 100 CALM      30.07S
JOPLIN         PTCLDY    69  68  96 SE3       30.04F
WEST PLAINS    CLEAR     71  67  87 S3        30.08S

$$

IAZ060-094-KSZ022-034>040-054-083-096-NEZ052-066-093-270700-
...KANSAS...SOUTHEAST NEBRASKA AND IOWA...

CITY           SKY/WX    TMP DP  RH WIND       PRES   REMARKS
TOPEKA         PTCLDY    70  68  93 CALM      30.03F
6HR MIN TEMP:  69; 6HR MAX TEMP:  78;

MANHATTAN      CLOUDY    71  69  93 E5        30.02F
EMPORIA        PTCLDY    70  69  97 S6        30.02F
CHANUTE        CLOUDY    71  69  93 SE3       30.02F
WICHITA        PTCLDY    72  69  90 S7        30.01F
OMAHA          CLOUDY    66  62  87 CALM      30.03S
LINCOLN        CLOUDY    68  66  93 SE5       30.04S
FALLS CITY     FOG       66  66 100 CALM      30.01F VSB 1
LAMONI         LGT RAIN  69  68  96 N5        30.00S
DES MOINES     CLOUDY    65  62  90 E10       30.02F

$$





USA.gov is the U.S. government's official web portal to all federal, state and local government web resources and services.